Погода в Димитровграде

Погода в Димитровграде : погода сейчас, прогноз погоды и архив. Всё, что Вы хотите узнать о погоде в Димитровграде!

Хотите узнать прогноз погоды в Димитровграде? Тогда Вам сюда: Погода в Димитровграде

Поиск расширенной информации на нашем сайте:

Другие новости

Новости СМИ2

Главная страница сайта

Новости сайта

03.07.2017

Напоминаем, что на нашем специализированном сайте Метеоцентр.Азия вы можете получить высокодетализированные автоматические прогнозы погоды по пунктам России, СНГ и мира в авиационном формате (включающие направление и скорость ветра, видимость, явления погоды, количество и форму облачности, нижнюю и верхнюю границу облачности).


Погода в Димитровграде - сегодня

Время (UTC), дата Ветер
(°,м/с) 
Видим.   Явления Облачность Т
(°С)
Тd
(°С)
f(%) Тe
(°С)
Pmin
(гПа)
dP
(гПа)
Po
(мм)
O2
(г/м3)
Тmin Tmax R s Состояние
почвы
09 19.07.17 350 (С) 10 км    5/5 800 м 
[Cu med, cong]
+23.8 +12.1 48 +28  1016.5  -0.3  756  278           
12 19.07.17 020 (С) 10 км    3/0 верхняя 
[Ci sp]
+25.3 +11.3 42 +28  1015.6  -0.8  755  277           
15 19.07.17 350 (С) 10 км    ясно 
+23.8 +9.9 41 +25  1015.2  -0.5  755  278    +26       
18 19.07.17 330 (СЗ) 10 км    ясно 
+16.7 +13.6 82 +24  1016  0.6  755  284           
21 19.07.17 330 (СЗ) 10 км    ясно 
+13.9 +12.6 92 +19  1015.9  0.1  755  287           
00 20.07.17 330 (СЗ) 10 км    ясно 
+11.7 +11 95 +15  1015.9  0.1  755  290           
03 20.07.17 тихо ()   10 км    ясно 
+17.9 +13.1 73 +23  1015.8  0.1  755  283  +11.7        сухая 
06 20.07.17 100 (В) 10 км    ясно 
+23.9 +13.4 52 +30  1015.4  -0.3  755  277           
09 20.07.17 140 (ЮВ) 10 км    4/4 900 м 
[Cu med, cong]
+26.2 +13.4 45 +32  1014.9  -0.4  755  275           
12 20.07.17 120 (ЮВ) 10 км    4/4 900 м 
[Cu med, cong]
+26.8 +11.6 39 +30  1013.9  -1  754  275           
15 20.07.17 090 (В) 10 км    3/0 средняя 
[Ac cast]
+24.7 +12.1 45 +29  1013.1  -0.8  754  276    +27.3       
18 20.07.17 330 (СЗ) 10 км    3/0 средняя 
[Ac As]
+19.8 +15.3 75 +30  1013.8  0.5  754  280           
21 20.07.17 330 (СЗ) 10 км    4/0 средняя 
[Ac As]
+15.8 +14.5 92 +25  1013.8  0.1  754  284           
00 21.07.17 300 (СЗ) 10 км    6/0 средняя 
[Ac As]
+14.5 +13.6 94 +22  1013.2  -0.7  753  286           
03 21.07.17 360 (С) 10 км    10/10 840 м 
[Sc]
+17.5 +14.5 83 +27  1013.1  0.1  753  282  +14        сухая 
06 21.07.17 тихо ()   10 км  {ливн. осадки}  10/10 750 м кучево-дожд. 
[Cb cap]
+17.9 +15.7 87 +28  1013.8  0.7  754  282           
09 21.07.17 200 (Ю) 10 км  {ливн. осадки}  9/9 750 м кучево-дожд. 
[Cb cap]
+20.6 +15.5 73 +30  1013.3  -0.4  754  279           
12 21.07.17 040 (СВ) 10 км  {ливн. осадки}  8/5 800 м кучево-дожд., верхняя 
[Cb cap|Ci sp]
+22.2 +17.7 76 +36  1012.2  -1  753  277           
15 21.07.17 100 (В) 10 км    3/1 870 м верхняя 
[Sc|Ci sp]
+23 +15.5 63 +32  1011.6  -0.6  752  276    +24.2     
18 21.07.17 320 (СЗ) 10 км    8/8 720 м кучево-дожд. 
[Cb cap]
+17.5 +16.5 94 +30  1011.7  0.1  752  281           
21 21.07.17 тихо ()   10 км  в посл. час ливневой дождь{гроза}  6/0 верхняя 
[Ci sp]
+15.4 +14.8 96 +24  1012.2  0.4  753  284           
00 22.07.17 тихо ()   2000 м  дымка{гроза, ливн. осадки}  10/10 700 м 
[St]
+14.3 +13.8 97 +21  1011.5  -0.7  752  285           
03 22.07.17 260 (З) 10 км  {туман}  10/0 средняя 
[Ac und]
+17.2 +16.7 97 +31  1011.8  0.4  752  281  +13.7      мокрая 
06 22.07.17 300 (СЗ) 10 км  {туман}  4/3 900 м верхняя 
[Cu med, cong|Ci sp]
+22.2 +16.1 68 +33  1012.6  0.9  753  277           
09 22.07.17 310 (СЗ) 10 км    3/3 870 м верхняя 
[Cu med, cong|Ci sp]
+24.1 +11.9 46 +28  1013  0.4  753  277           
Время (UTC), дата Ветер
(°,м/с) 
Видим.   Явления Облачность Т
(°С)
Тd
(°С)
f(%) Тe
(°С)
Pmin
(гПа)
dP
(гПа)
Po
(мм)
O2
(г/м3)
Тmin Tmax R s Состояние
почвы

Для получения пояснительной информации подведите курсор к названию столбца.

ПОГОДА в Димитровграде - архив

Всё, что Вы хотите узнать о погоде в Димитровграде - удобно и подробно!

Выберите нужную дату (начиная с 1 января 2015* года) и нажмите кнопку "Найти".
Будут отображены архивные сводки погоды по пункту Димитровград, начиная с указанной даты.


Отображать данные в формате CSV (для использования в таблицах Excel)


Внимание! Наш архив погоды предназначен исключительно для личного некоммерческого использования в познавательных целях. Если Вам необходимы официальные справки о состоянии погоды (для производственных, юридических, коммерческих и т.п. целей), обращайтесь в органы Росгидромета.

*Примечание: данная дата относится к архиву по метеостанциям СССР (Россия, СНГ, Балтия).
Архив по метеостанциям Зарубежной Европы и Азии (кроме Китая) хранится 10 дней, по другим регионам земного шара (Китай, Африка, Америка, Австралия, Океания) - 1 день.

Димитровград - район местоположения метеостанции


Название, широта, долгота, высота метеостанции:
Димитровград 54.2°ш. 49.6°д. 73 м над ур. моря [Российская Федерация]

Дополнительная информация

В oтличие oт бoльшинства пoгoдных сайтoв мы публикуем пoдрoбную метеoинфoрмацию в детальнoм прoфессиoнальнoм фoрмате.

Характеристики температуры и влажнoсти вoздуха измеряются на высoте 2 м в тени вдали oт зданий и деревьев.
Скoрoсть ветра измеряется на высoте 10 м (на урoвне рoста челoвека скoрoсть ветра ниже в 1.5-2 раза). Если метеoстанция нахoдится в гoрoде или в лесу, тo скoрoсть ветра занижена на 2-4 м/с пo сравнению с oткрытым местoм. Скoрoсть ветра над акватoриями крупных рек и oзёр, а также на вершинах хoлмoв на 2-5 м/с выше, чем в oбычных услoвиях.
Атмoсфернoе давление в разных тoчках местнoсти мoжет значительнo oтличаться oт давления на метеoстанции, в зависимoсти oт услoвий рельефа (при пoдъёме на 10 м давление пoнижается примернo на 1 мм рт.ст.).